CZ-3B DEB, 42458

Orbit data source: Space-Track

CZ-3B DEB, 42458 is space debris in HEO originally from a launch on Sat, 04 Sep 2010 UTC launched from the Xichang Space Center, China (XSC). Debris objects in space refer to the collection of defunct objects orbiting the Earth. Examples of debris include non-operational satellites, rocket bodies, and fragments generated from explosions, collisions, or faulty payload assembly.

Loading next visibility...
Identifier
42458, 2010-042Z
Orbit
HEO
Country
Flag of CNCN / PRC
Related business
Manufacturer
CALT
Mission
Spacecraft
Bus & Motor
Unknown
Mass
Unknown
Launch date (UTC)
2010-09-04 (16 years ago)
Launch vehicle
Unknown
Launch site
Xichang Space Center, China (XSC)
Object type
Payload
Rocket body
Debris
Shape & HBR
Unknown shape, 0.1 m
Radar Cross Section
Medium (>0.1 m² and <1 m²)

Expand to show TLE details & history
Last TLE update: 4 days ago

TLE from 4 days ago
0 CZ-3B DEB
1 42458U 10042Z   26189.05992813 -.00000242  00000-0 -66029-2 0  9998
2 42458  29.6816 247.6252 7526526 237.7232  28.4283  1.81314893 76855
Epoch: 2026-07-08T01:26Z
TLE epoch observation values (Epoch: 2026-07-08T01:26:17.790Z)
Latitude
-0°
Longitude
-59.86574°
Altitude
14,257.615 km
Speed
4.96 km/s
True Right ascension
16h 30m 55s
True Declination
0° 00' 00"
Sunlit
Object was in daylight at epoch
Visualization orbit readout
Latitude
Unknown
Longitude
Unknown
Altitude
Unknown
Speed
Unknown
Apparent Right ascension
Unknown
Apparent Declination
Unknown
Sunlit
N/A
Visualization observer readout
Local Sidereal Time
03:33:37
Azimuth
Unknown
Elevation
Unknown
Doppler factor
Unknown
Orbital elements
Apogee altitude
43,417.901 km
Perigee altitude
649.451 km
Semi-major axis
28,411.813 km
Eccentricity
0.75265
Inclination
29.6816°
RAAN
247.6252°
Arg. of periapsis
237.7232°
True anomaly
122.28959°
Mean anomaly
28.4283°
Eccentric anomaly
68.57102°
Mean motion
0.45321 °/min
Orbital period
794.34 mins
BSTAR
-0.0066029
Loading maneuver chart data...
Computing Atmospheric mass density...
Loading historical data...
Loading historical data...
Loading historical data...
Loading historical data...
Loading historical data...
Loading historical data...
Loading historical data...

Documentation

Showing up to 5 results
|